Year,Month,Day,Hour,Minute,Value (Times are PST for temperature in C)
2006,06,24,00,00,14.00
2006,06,24,00,01,14.00
2006,06,24,00,02,14.00
2006,06,24,00,03,14.00
2006,06,24,00,04,14.00
2006,06,24,00,05,13.90
2006,06,24,00,06,13.90
2006,06,24,00,07,13.90
2006,06,24,00,08,13.90
2006,06,24,00,09,13.80
2006,06,24,00,10,13.80
2006,06,24,00,11,13.80
2006,06,24,00,12,13.80
2006,06,24,00,13,13.80
2006,06,24,00,14,13.80
2006,06,24,00,15,13.80
2006,06,24,00,16,13.80
2006,06,24,00,17,13.80
2006,06,24,00,18,13.80
2006,06,24,00,19,13.80
2006,06,24,00,20,13.80
2006,06,24,00,21,13.80
2006,06,24,00,22,13.90
2006,06,24,00,23,13.90
2006,06,24,00,24,13.90
2006,06,24,00,25,14.00
2006,06,24,00,26,14.00
2006,06,24,00,27,14.00
2006,06,24,00,28,14.00
2006,06,24,00,29,14.00
2006,06,24,00,30,14.00
2006,06,24,00,31,14.00
2006,06,24,00,32,13.90
2006,06,24,00,33,13.90
2006,06,24,00,34,13.90
2006,06,24,00,35,13.90
2006,06,24,00,36,13.80
2006,06,24,00,37,13.80
2006,06,24,00,38,13.80
2006,06,24,00,39,13.70
2006,06,24,00,40,13.70
2006,06,24,00,41,13.70
2006,06,24,00,42,13.70
2006,06,24,00,43,13.70
2006,06,24,00,44,13.70
2006,06,24,00,45,13.70
2006,06,24,00,46,13.70
2006,06,24,00,47,13.60
2006,06,24,00,48,13.60
2006,06,24,00,49,13.60
2006,06,24,00,50,13.60
2006,06,24,00,51,13.60
2006,06,24,00,52,13.50
2006,06,24,00,53,13.50
2006,06,24,00,54,13.50
2006,06,24,00,55,13.40
2006,06,24,00,56,13.40
2006,06,24,00,57,13.40
2006,06,24,00,58,13.40
2006,06,24,00,59,13.40
2006,06,24,01,00,13.40
2006,06,24,01,01,13.40
2006,06,24,01,02,13.40
2006,06,24,01,03,13.40
2006,06,24,01,04,13.40
2006,06,24,01,05,13.40
2006,06,24,01,06,13.30
2006,06,24,01,07,13.30
2006,06,24,01,08,13.30
2006,06,24,01,09,13.30
2006,06,24,01,10,13.30
2006,06,24,01,11,13.20
2006,06,24,01,12,13.20
2006,06,24,01,13,13.20
2006,06,24,01,14,13.10
2006,06,24,01,15,13.10
2006,06,24,01,16,13.00
2006,06,24,01,17,13.00
2006,06,24,01,18,13.00
2006,06,24,01,19,13.00
2006,06,24,01,20,12.90
2006,06,24,01,21,12.90
2006,06,24,01,22,12.80
2006,06,24,01,23,12.80
2006,06,24,01,24,12.80
2006,06,24,01,25,12.80
2006,06,24,01,26,12.80
2006,06,24,01,27,12.80
2006,06,24,01,28,12.70
2006,06,24,01,29,12.70
2006,06,24,01,30,12.70
2006,06,24,01,31,12.60
2006,06,24,01,32,12.60
2006,06,24,01,33,12.60
2006,06,24,01,34,12.50
2006,06,24,01,35,12.50
2006,06,24,01,36,12.50
2006,06,24,01,37,12.50
2006,06,24,01,38,12.50
2006,06,24,01,39,12.50
2006,06,24,01,40,12.40
2006,06,24,01,41,12.40
2006,06,24,01,42,12.40
2006,06,24,01,43,12.40
2006,06,24,01,44,12.40
2006,06,24,01,45,12.50
2006,06,24,01,46,12.50
2006,06,24,01,47,12.50
2006,06,24,01,48,12.50
2006,06,24,01,49,12.50
2006,06,24,01,50,12.40
2006,06,24,01,51,12.40
2006,06,24,01,52,12.40
2006,06,24,01,53,12.40
2006,06,24,01,54,12.40
2006,06,24,01,55,12.50
2006,06,24,01,56,12.50
2006,06,24,01,57,12.50
2006,06,24,01,58,12.50
2006,06,24,01,59,12.50
2006,06,24,02,00,12.50
2006,06,24,02,01,12.50
2006,06,24,02,02,12.50
2006,06,24,02,03,12.40
2006,06,24,02,04,12.40
2006,06,24,02,05,12.40
2006,06,24,02,06,12.40
2006,06,24,02,07,12.40
2006,06,24,02,08,12.40
2006,06,24,02,09,12.30
2006,06,24,02,10,12.30
2006,06,24,02,11,12.30
2006,06,24,02,12,12.30
2006,06,24,02,13,12.30
2006,06,24,02,14,12.20
2006,06,24,02,15,12.20
2006,06,24,02,16,12.20
2006,06,24,02,17,12.20
2006,06,24,02,18,12.10
2006,06,24,02,19,12.10
2006,06,24,02,20,12.10
2006,06,24,02,21,12.10
2006,06,24,02,22,12.10
2006,06,24,02,23,12.20
2006,06,24,02,24,12.20
2006,06,24,02,25,12.20
2006,06,24,02,26,12.20
2006,06,24,02,27,12.20
2006,06,24,02,28,12.30
2006,06,24,02,29,12.30
2006,06,24,02,30,12.30
2006,06,24,02,31,12.30
2006,06,24,02,32,12.30
2006,06,24,02,33,12.30
2006,06,24,02,34,12.30
2006,06,24,02,35,12.30
2006,06,24,02,36,12.40
2006,06,24,02,37,12.40
2006,06,24,02,38,12.40
2006,06,24,02,39,12.40
2006,06,24,02,40,12.50
2006,06,24,02,41,12.50
2006,06,24,02,42,12.50
2006,06,24,02,43,12.50
2006,06,24,02,44,12.50
2006,06,24,02,45,12.50
2006,06,24,02,46,12.50
2006,06,24,02,47,12.50
2006,06,24,02,48,12.50
2006,06,24,02,49,12.50
2006,06,24,02,50,12.50
2006,06,24,02,51,12.50
2006,06,24,02,52,12.50
2006,06,24,02,53,12.50
2006,06,24,02,54,12.50
2006,06,24,02,55,12.50
2006,06,24,02,56,12.40
2006,06,24,02,57,12.40
2006,06,24,02,58,12.40
2006,06,24,02,59,12.30
2006,06,24,03,00,12.30
2006,06,24,03,01,12.30
2006,06,24,03,02,12.30
2006,06,24,03,03,12.30
2006,06,24,03,04,12.30
2006,06,24,03,05,12.20
2006,06,24,03,06,12.20
2006,06,24,03,07,12.20
2006,06,24,03,08,12.20
2006,06,24,03,09,12.20
2006,06,24,03,10,12.20
2006,06,24,03,11,12.20
2006,06,24,03,12,12.20
2006,06,24,03,13,12.20
2006,06,24,03,14,12.30
2006,06,24,03,15,12.30
2006,06,24,03,16,12.30
2006,06,24,03,17,12.30
2006,06,24,03,18,12.30
2006,06,24,03,19,12.30
2006,06,24,03,20,12.30
2006,06,24,03,21,12.30
2006,06,24,03,22,12.30
2006,06,24,03,23,12.30
2006,06,24,03,24,12.30
2006,06,24,03,25,12.30
2006,06,24,03,26,12.30
2006,06,24,03,27,12.30
2006,06,24,03,28,12.30
2006,06,24,03,29,12.30
2006,06,24,03,30,12.30
2006,06,24,03,31,12.30
2006,06,24,03,32,12.30
2006,06,24,03,33,12.30
2006,06,24,03,34,12.30
2006,06,24,03,35,12.30
2006,06,24,03,36,12.30
2006,06,24,03,37,12.30
2006,06,24,03,38,12.30
2006,06,24,03,39,12.30
2006,06,24,03,40,12.30
2006,06,24,03,41,12.30
2006,06,24,03,42,12.30
2006,06,24,03,43,12.30
2006,06,24,03,44,12.20
2006,06,24,03,45,12.20
2006,06,24,03,46,12.20
2006,06,24,03,47,12.10
2006,06,24,03,48,12.10
2006,06,24,03,49,12.10
2006,06,24,03,50,12.10
2006,06,24,03,51,12.10
2006,06,24,03,52,12.00
2006,06,24,03,53,12.00
2006,06,24,03,54,12.00
2006,06,24,03,55,11.90
2006,06,24,03,56,11.90
2006,06,24,03,57,11.90
2006,06,24,03,58,11.90
2006,06,24,03,59,11.90
2006,06,24,04,00,11.90
2006,06,24,04,01,11.90
2006,06,24,04,02,11.90
2006,06,24,04,03,11.90
2006,06,24,04,04,11.90
2006,06,24,04,05,12.00
2006,06,24,04,06,12.00
2006,06,24,04,07,12.00
2006,06,24,04,08,12.00
2006,06,24,04,09,12.00
2006,06,24,04,10,12.00
2006,06,24,04,11,12.00
2006,06,24,04,12,12.00
2006,06,24,04,13,12.00
2006,06,24,04,14,12.00
2006,06,24,04,15,12.00
2006,06,24,04,16,12.00
2006,06,24,04,17,12.00
2006,06,24,04,18,11.90
2006,06,24,04,19,11.80
2006,06,24,04,20,11.80
2006,06,24,04,21,11.80
2006,06,24,04,22,11.70
2006,06,24,04,23,11.70
2006,06,24,04,24,11.60
2006,06,24,04,25,11.60
2006,06,24,04,26,11.60
2006,06,24,04,27,11.60
2006,06,24,04,28,11.50
2006,06,24,04,29,11.40
2006,06,24,04,30,11.40
2006,06,24,04,31,11.40
2006,06,24,04,32,11.30
2006,06,24,04,33,11.30
2006,06,24,04,34,11.30
2006,06,24,04,35,11.20
2006,06,24,04,36,11.20
2006,06,24,04,37,11.10
2006,06,24,04,38,11.10
2006,06,24,04,39,11.10
2006,06,24,04,40,11.10
2006,06,24,04,41,11.00
2006,06,24,04,42,10.90
2006,06,24,04,43,10.90
2006,06,24,04,44,10.90
2006,06,24,04,45,10.90
2006,06,24,04,46,10.80
2006,06,24,04,47,10.80
2006,06,24,04,48,10.80
2006,06,24,04,49,10.70
2006,06,24,04,50,10.70
2006,06,24,04,51,10.70
2006,06,24,04,52,10.70
2006,06,24,04,53,10.70
2006,06,24,04,54,10.70
2006,06,24,04,55,10.70
2006,06,24,04,56,10.70
2006,06,24,04,57,10.70
2006,06,24,04,58,10.70
2006,06,24,04,59,10.70
2006,06,24,05,00,10.70
2006,06,24,05,01,10.70
2006,06,24,05,02,10.70
2006,06,24,05,03,10.70
2006,06,24,05,04,10.70
2006,06,24,05,05,10.70
2006,06,24,05,06,10.80
2006,06,24,05,07,10.80
2006,06,24,05,08,10.90
2006,06,24,05,09,10.90
2006,06,24,05,10,10.90
2006,06,24,05,11,10.90
2006,06,24,05,12,11.00
2006,06,24,05,13,11.10
2006,06,24,05,14,11.10
2006,06,24,05,15,11.10
2006,06,24,05,16,11.10
2006,06,24,05,17,11.10
2006,06,24,05,18,11.10
2006,06,24,05,19,11.10
2006,06,24,05,20,11.10
2006,06,24,05,21,11.10
2006,06,24,05,22,11.00
2006,06,24,05,23,10.90
2006,06,24,05,24,10.90
2006,06,24,05,25,10.90
2006,06,24,05,26,10.90
2006,06,24,05,27,10.90
2006,06,24,05,28,10.90
2006,06,24,05,29,10.90
2006,06,24,05,30,10.90
2006,06,24,05,31,10.90
2006,06,24,05,32,10.90
2006,06,24,05,33,10.90
2006,06,24,05,34,10.90
2006,06,24,05,35,10.90
2006,06,24,05,36,10.80
2006,06,24,05,37,10.80
2006,06,24,05,38,10.80
2006,06,24,05,39,10.80
2006,06,24,05,40,10.80
2006,06,24,05,41,10.80
2006,06,24,05,42,10.80
2006,06,24,05,43,10.80
2006,06,24,05,44,10.80
2006,06,24,05,45,10.80
2006,06,24,05,46,10.90
2006,06,24,05,47,10.90
2006,06,24,05,48,10.90
2006,06,24,05,49,10.90
2006,06,24,05,50,10.90
2006,06,24,05,51,10.90
2006,06,24,05,52,11.00
2006,06,24,05,53,11.10
2006,06,24,05,54,11.10
2006,06,24,05,55,11.10
2006,06,24,05,56,11.10
2006,06,24,05,57,11.10
2006,06,24,05,58,11.10
2006,06,24,05,59,11.20
2006,06,24,06,00,11.20
2006,06,24,06,01,11.20
2006,06,24,06,02,11.30
2006,06,24,06,03,11.30
2006,06,24,06,04,11.30
2006,06,24,06,05,11.40
2006,06,24,06,06,11.50
2006,06,24,06,07,11.60
2006,06,24,06,08,11.60
2006,06,24,06,09,11.60
2006,06,24,06,10,11.70
2006,06,24,06,11,11.80
2006,06,24,06,12,11.80
2006,06,24,06,13,11.80
2006,06,24,06,14,11.70
2006,06,24,06,15,11.60
2006,06,24,06,16,11.60
2006,06,24,06,17,11.50
2006,06,24,06,18,11.40
2006,06,24,06,19,11.40
2006,06,24,06,20,11.40
2006,06,24,06,21,11.30
2006,06,24,06,22,11.30
2006,06,24,06,23,11.30
2006,06,24,06,24,11.30
2006,06,24,06,25,11.30
2006,06,24,06,26,11.40
2006,06,24,06,27,11.40
2006,06,24,06,28,11.50
2006,06,24,06,29,11.60
2006,06,24,06,30,11.60
2006,06,24,06,31,11.60
2006,06,24,06,32,11.60
2006,06,24,06,33,11.60
2006,06,24,06,34,11.60
2006,06,24,06,35,11.60
2006,06,24,06,36,11.60
2006,06,24,06,37,11.60
2006,06,24,06,38,11.60
2006,06,24,06,39,11.60
2006,06,24,06,40,11.60
2006,06,24,06,41,11.60
2006,06,24,06,42,11.60
2006,06,24,06,43,11.60
2006,06,24,06,44,11.60
2006,06,24,06,45,11.60
2006,06,24,06,46,11.60
2006,06,24,06,47,11.60
2006,06,24,06,48,11.60
2006,06,24,06,49,11.60
2006,06,24,06,50,11.70
2006,06,24,06,51,11.70
2006,06,24,06,52,11.70
2006,06,24,06,53,11.70
2006,06,24,06,54,11.70
2006,06,24,06,55,11.80
2006,06,24,06,56,11.80
2006,06,24,06,57,11.80
2006,06,24,06,58,11.80
2006,06,24,06,59,11.90
2006,06,24,07,00,12.00
2006,06,24,07,01,12.10
2006,06,24,07,02,12.10
2006,06,24,07,03,12.20
2006,06,24,07,04,12.30
2006,06,24,07,05,12.30
2006,06,24,07,06,12.30
2006,06,24,07,07,12.30
2006,06,24,07,08,12.30
2006,06,24,07,09,12.30
2006,06,24,07,10,12.40
2006,06,24,07,11,12.50
2006,06,24,07,12,12.60
2006,06,24,07,13,12.60
2006,06,24,07,14,12.80
2006,06,24,07,15,12.80
2006,06,24,07,16,12.90
2006,06,24,07,17,12.90
2006,06,24,07,18,13.00
2006,06,24,07,19,13.00
2006,06,24,07,20,13.10
2006,06,24,07,21,13.10
2006,06,24,07,22,13.10
2006,06,24,07,23,13.10
2006,06,24,07,24,13.20
2006,06,24,07,25,13.20
2006,06,24,07,26,13.30
2006,06,24,07,27,13.30
2006,06,24,07,28,13.30
2006,06,24,07,29,13.40
2006,06,24,07,30,13.40
2006,06,24,07,31,13.40
2006,06,24,07,32,13.50
2006,06,24,07,33,13.60
2006,06,24,07,34,13.60
2006,06,24,07,35,13.70
2006,06,24,07,36,13.80
2006,06,24,07,37,13.90
2006,06,24,07,38,13.90
2006,06,24,07,39,14.00
2006,06,24,07,40,14.10
2006,06,24,07,41,14.20
2006,06,24,07,42,14.30
2006,06,24,07,43,14.50
2006,06,24,07,44,14.60
2006,06,24,07,45,14.80
2006,06,24,07,46,15.00
2006,06,24,07,47,15.10
2006,06,24,07,48,15.20
2006,06,24,07,49,15.40
2006,06,24,07,50,15.50
2006,06,24,07,51,15.70
2006,06,24,07,52,15.80
2006,06,24,07,53,16.00
2006,06,24,07,54,16.20
2006,06,24,07,55,16.40
2006,06,24,07,56,16.50
2006,06,24,07,57,16.70
2006,06,24,07,58,16.80
2006,06,24,07,59,17.00
2006,06,24,08,00,17.10
2006,06,24,08,01,17.20
2006,06,24,08,02,17.30
2006,06,24,08,03,17.30
2006,06,24,08,04,17.40
2006,06,24,08,05,17.50
2006,06,24,08,06,17.60
2006,06,24,08,07,17.70
2006,06,24,08,08,17.70
2006,06,24,08,09,17.80
2006,06,24,08,10,17.90
2006,06,24,08,11,17.90
2006,06,24,08,12,17.90
2006,06,24,08,13,18.10
2006,06,24,08,14,18.10
2006,06,24,08,15,18.10
2006,06,24,08,16,18.10
2006,06,24,08,17,18.20
2006,06,24,08,18,18.20
2006,06,24,08,19,18.20
2006,06,24,08,20,18.30
2006,06,24,08,21,18.30
2006,06,24,08,22,18.40
2006,06,24,08,23,18.40
2006,06,24,08,24,18.50
2006,06,24,08,25,18.50
2006,06,24,08,26,18.50
2006,06,24,08,27,18.50
2006,06,24,08,28,18.50
2006,06,24,08,29,18.60
2006,06,24,08,30,18.60
2006,06,24,08,31,18.60
2006,06,24,08,32,18.70
2006,06,24,08,33,18.70
2006,06,24,08,34,18.70
2006,06,24,08,35,18.80
2006,06,24,08,36,18.90
2006,06,24,08,37,18.90
2006,06,24,08,38,18.90
2006,06,24,08,39,19.00
2006,06,24,08,40,19.10
2006,06,24,08,41,19.10
2006,06,24,08,42,19.10
2006,06,24,08,43,19.20
2006,06,24,08,44,19.20
2006,06,24,08,45,19.20
2006,06,24,08,46,19.20
2006,06,24,08,47,19.20
2006,06,24,08,48,19.20
2006,06,24,08,49,19.20
2006,06,24,08,50,19.30
2006,06,24,08,51,19.30
2006,06,24,08,52,19.30
2006,06,24,08,53,19.30
2006,06,24,08,54,19.30
2006,06,24,08,55,19.30
2006,06,24,08,56,19.30
2006,06,24,08,57,19.30
2006,06,24,08,58,19.30
2006,06,24,08,59,19.30
2006,06,24,09,00,19.30
2006,06,24,09,01,19.30
2006,06,24,09,02,19.30
2006,06,24,09,03,19.30
2006,06,24,09,04,19.30
2006,06,24,09,05,19.30
2006,06,24,09,06,19.30
2006,06,24,09,07,19.30
2006,06,24,09,08,19.30
2006,06,24,09,09,19.20
2006,06,24,09,10,19.20
2006,06,24,09,11,19.10
2006,06,24,09,12,19.20
2006,06,24,09,13,19.30
2006,06,24,09,14,19.40
2006,06,24,09,15,19.40
2006,06,24,09,16,19.50
2006,06,24,09,17,19.60
2006,06,24,09,18,19.70
2006,06,24,09,19,19.80
2006,06,24,09,20,19.70
2006,06,24,09,21,19.70
2006,06,24,09,22,19.70
2006,06,24,09,23,19.80
2006,06,24,09,24,19.80
2006,06,24,09,25,19.80
2006,06,24,09,26,19.80
2006,06,24,09,27,19.80
2006,06,24,09,28,19.80
2006,06,24,09,29,19.70
2006,06,24,09,30,19.70
2006,06,24,09,31,19.70
2006,06,24,09,32,19.90
2006,06,24,09,33,20.00
2006,06,24,09,34,20.10
2006,06,24,09,35,20.20
2006,06,24,09,36,20.20
2006,06,24,09,37,20.20
2006,06,24,09,38,20.20
2006,06,24,09,39,20.30
2006,06,24,09,40,20.30
2006,06,24,09,41,20.40
2006,06,24,09,42,20.40
2006,06,24,09,43,20.30
2006,06,24,09,44,20.40
2006,06,24,09,45,20.50
2006,06,24,09,46,20.50
2006,06,24,09,47,20.60
2006,06,24,09,48,20.60
2006,06,24,09,49,20.70
2006,06,24,09,50,20.80
2006,06,24,09,51,20.80
2006,06,24,09,52,20.80
2006,06,24,09,53,20.80
2006,06,24,09,54,20.80
2006,06,24,09,55,20.80
2006,06,24,09,56,20.80
2006,06,24,09,57,20.80
2006,06,24,09,58,20.90
2006,06,24,09,59,20.90
2006,06,24,10,00,20.90
2006,06,24,10,01,20.90
2006,06,24,10,02,20.90
2006,06,24,10,03,20.90
2006,06,24,10,04,20.80
2006,06,24,10,05,20.60
2006,06,24,10,06,20.60
2006,06,24,10,07,20.50
2006,06,24,10,08,20.50
2006,06,24,10,09,20.60
2006,06,24,10,10,20.70
2006,06,24,10,11,20.70
2006,06,24,10,12,20.80
2006,06,24,10,13,20.90
2006,06,24,10,14,20.90
2006,06,24,10,15,20.90
2006,06,24,10,16,20.90
2006,06,24,10,17,20.80
2006,06,24,10,18,20.90
2006,06,24,10,19,20.90
2006,06,24,10,20,20.90
2006,06,24,10,21,21.00
2006,06,24,10,22,21.00
2006,06,24,10,23,21.00
2006,06,24,10,24,21.00
2006,06,24,10,25,21.10
2006,06,24,10,26,21.00
2006,06,24,10,27,20.90
2006,06,24,10,28,20.90
2006,06,24,10,29,20.80
2006,06,24,10,30,20.80
2006,06,24,10,31,20.80
2006,06,24,10,32,20.80
2006,06,24,10,33,20.90
2006,06,24,10,34,20.90
2006,06,24,10,35,21.00
2006,06,24,10,36,21.00
2006,06,24,10,37,21.00
2006,06,24,10,38,21.00
2006,06,24,10,39,21.00
2006,06,24,10,40,21.00
2006,06,24,10,41,21.00
2006,06,24,10,42,20.90
2006,06,24,10,43,20.90
2006,06,24,10,44,20.90
2006,06,24,10,45,20.80
2006,06,24,10,46,20.70
2006,06,24,10,47,20.70
2006,06,24,10,48,20.70
2006,06,24,10,49,20.70
2006,06,24,10,50,20.70
2006,06,24,10,51,20.60
2006,06,24,10,52,20.70
2006,06,24,10,53,20.80
2006,06,24,10,54,20.90
2006,06,24,10,55,21.00
2006,06,24,10,56,21.00
2006,06,24,10,57,21.20
2006,06,24,10,58,21.30
2006,06,24,10,59,21.30
2006,06,24,11,00,21.30
2006,06,24,11,01,21.30
2006,06,24,11,02,21.20
2006,06,24,11,03,21.20
2006,06,24,11,04,21.20
2006,06,24,11,05,21.20
2006,06,24,11,06,21.10
2006,06,24,11,07,21.20
2006,06,24,11,08,21.10
2006,06,24,11,09,21.20
2006,06,24,11,10,21.30
2006,06,24,11,11,21.30
2006,06,24,11,12,21.30
2006,06,24,11,13,21.30
2006,06,24,11,14,21.30
2006,06,24,11,15,21.30
2006,06,24,11,16,21.30
2006,06,24,11,17,21.30
2006,06,24,11,18,21.30
2006,06,24,11,19,21.30
2006,06,24,11,20,21.40
2006,06,24,11,21,21.50
2006,06,24,11,22,21.60
2006,06,24,11,23,21.60
2006,06,24,11,24,21.60
2006,06,24,11,25,21.60
2006,06,24,11,26,21.60
2006,06,24,11,27,21.60
2006,06,24,11,28,21.60
2006,06,24,11,29,21.60
2006,06,24,11,30,21.60
2006,06,24,11,31,21.60
2006,06,24,11,32,21.60
2006,06,24,11,33,21.70
2006,06,24,11,34,21.80
2006,06,24,11,35,21.80
2006,06,24,11,36,21.70
2006,06,24,11,37,21.60
2006,06,24,11,38,21.70
2006,06,24,11,39,21.60
2006,06,24,11,40,21.60
2006,06,24,11,41,21.70
2006,06,24,11,42,21.70
2006,06,24,11,43,21.60
2006,06,24,11,44,21.60
2006,06,24,11,45,21.70
2006,06,24,11,46,21.80
2006,06,24,11,47,21.90
2006,06,24,11,48,21.90
2006,06,24,11,49,22.00
2006,06,24,11,50,22.00
2006,06,24,11,51,21.90
2006,06,24,11,52,22.00
2006,06,24,11,53,22.00
2006,06,24,11,54,22.00
2006,06,24,11,55,21.90
2006,06,24,11,56,21.90
2006,06,24,11,57,22.00
2006,06,24,11,58,22.00
2006,06,24,11,59,22.10
2006,06,24,12,00,22.10
2006,06,24,12,01,22.00
2006,06,24,12,02,22.00
2006,06,24,12,03,22.00
2006,06,24,12,04,22.00
2006,06,24,12,05,21.90
2006,06,24,12,06,22.00
2006,06,24,12,07,22.10
2006,06,24,12,08,22.20
2006,06,24,12,09,22.20
2006,06,24,12,10,22.30
2006,06,24,12,11,22.30
2006,06,24,12,12,22.50
2006,06,24,12,13,22.60
2006,06,24,12,14,22.60
2006,06,24,12,15,22.60
2006,06,24,12,16,22.60
2006,06,24,12,17,22.60
2006,06,24,12,18,22.50
2006,06,24,12,19,22.60
2006,06,24,12,20,22.60
2006,06,24,12,21,22.70
2006,06,24,12,22,22.70
2006,06,24,12,23,22.70
2006,06,24,12,24,22.80
2006,06,24,12,25,22.60
2006,06,24,12,26,22.50
2006,06,24,12,27,22.60
2006,06,24,12,28,22.60
2006,06,24,12,29,22.60
2006,06,24,12,30,22.50
2006,06,24,12,31,22.50
2006,06,24,12,32,22.40
2006,06,24,12,33,22.40
2006,06,24,12,34,22.40
2006,06,24,12,35,22.40
2006,06,24,12,36,22.50
2006,06,24,12,37,22.50
2006,06,24,12,38,22.50
2006,06,24,12,39,22.60
2006,06,24,12,40,22.70
2006,06,24,12,41,22.70
2006,06,24,12,42,22.70
2006,06,24,12,43,22.70
2006,06,24,12,44,22.70
2006,06,24,12,45,22.70
2006,06,24,12,46,22.70
2006,06,24,12,47,22.70
2006,06,24,12,48,22.70
2006,06,24,12,49,22.70
2006,06,24,12,50,22.70
2006,06,24,12,51,22.80
2006,06,24,12,52,22.80
2006,06,24,12,53,22.90
2006,06,24,12,54,23.00
2006,06,24,12,55,23.20
2006,06,24,12,56,23.20
2006,06,24,12,57,23.30
2006,06,24,12,58,23.30
2006,06,24,12,59,23.30
2006,06,24,13,00,23.30
2006,06,24,13,01,23.50
2006,06,24,13,02,23.60
2006,06,24,13,03,23.70
2006,06,24,13,04,23.70
2006,06,24,13,05,23.50
2006,06,24,13,06,23.30
2006,06,24,13,07,23.10
2006,06,24,13,08,23.00
2006,06,24,13,09,22.90
2006,06,24,13,10,22.90
2006,06,24,13,11,22.90
2006,06,24,13,12,22.90
2006,06,24,13,13,22.90
2006,06,24,13,14,22.90
2006,06,24,13,15,22.90
2006,06,24,13,16,22.90
2006,06,24,13,17,23.00
2006,06,24,13,18,23.00
2006,06,24,13,19,23.00
2006,06,24,13,20,23.10
2006,06,24,13,21,23.10
2006,06,24,13,22,23.20
2006,06,24,13,23,23.30
2006,06,24,13,24,23.20
2006,06,24,13,25,23.20
2006,06,24,13,26,23.30
2006,06,24,13,27,23.30
2006,06,24,13,28,23.30
2006,06,24,13,29,23.20
2006,06,24,13,30,23.10
2006,06,24,13,31,23.10
2006,06,24,13,32,23.10
2006,06,24,13,33,23.10
2006,06,24,13,34,23.10
2006,06,24,13,35,23.20
2006,06,24,13,36,23.30
2006,06,24,13,37,23.30
2006,06,24,13,38,23.40
2006,06,24,13,39,23.40
2006,06,24,13,40,23.40
2006,06,24,13,41,23.40
2006,06,24,13,42,23.50
2006,06,24,13,43,23.60
2006,06,24,13,44,23.70
2006,06,24,13,45,23.70
2006,06,24,13,46,23.90
2006,06,24,13,47,24.00
2006,06,24,13,48,24.00
2006,06,24,13,49,23.90
2006,06,24,13,50,23.90
2006,06,24,13,51,24.00
2006,06,24,13,52,23.90
2006,06,24,13,53,23.80
2006,06,24,13,54,23.90
2006,06,24,13,55,24.00
2006,06,24,13,56,24.10
2006,06,24,13,57,24.10
2006,06,24,13,58,24.10
2006,06,24,13,59,24.10
2006,06,24,14,00,23.90
2006,06,24,14,01,23.80
2006,06,24,14,02,23.70
2006,06,24,14,03,23.60
2006,06,24,14,04,23.60
2006,06,24,14,05,23.70
2006,06,24,14,06,23.80
2006,06,24,14,07,23.90
2006,06,24,14,08,24.00
2006,06,24,14,09,24.10
2006,06,24,14,10,24.10
2006,06,24,14,11,24.20
2006,06,24,14,12,24.20
2006,06,24,14,13,24.20
2006,06,24,14,14,24.10
2006,06,24,14,15,24.00
2006,06,24,14,16,23.90
2006,06,24,14,17,24.00
2006,06,24,14,18,24.10
2006,06,24,14,19,24.10
2006,06,24,14,20,24.00
2006,06,24,14,21,23.90
2006,06,24,14,22,23.70
2006,06,24,14,23,23.80
2006,06,24,14,24,23.80
2006,06,24,14,25,23.70
2006,06,24,14,26,23.70
2006,06,24,14,27,23.70
2006,06,24,14,28,23.70
2006,06,24,14,29,23.70
2006,06,24,14,30,23.70
2006,06,24,14,31,23.80
2006,06,24,14,32,23.80
2006,06,24,14,33,23.80
2006,06,24,14,34,23.80
2006,06,24,14,35,23.80
2006,06,24,14,36,23.80
2006,06,24,14,37,23.80
2006,06,24,14,38,23.80
2006,06,24,14,39,23.80
2006,06,24,14,40,23.80
2006,06,24,14,41,23.70
2006,06,24,14,42,23.70
2006,06,24,14,43,23.70
2006,06,24,14,44,23.80
2006,06,24,14,45,23.80
2006,06,24,14,46,23.90
2006,06,24,14,47,24.00
2006,06,24,14,48,24.10
2006,06,24,14,49,24.10
2006,06,24,14,50,24.10
2006,06,24,14,51,24.10
2006,06,24,14,52,24.20
2006,06,24,14,53,24.20
2006,06,24,14,54,24.30
2006,06,24,14,55,24.40
2006,06,24,14,56,24.40
2006,06,24,14,57,24.50
2006,06,24,14,58,24.60
2006,06,24,14,59,24.60
2006,06,24,15,00,24.70
2006,06,24,15,01,24.70
2006,06,24,15,02,24.70
2006,06,24,15,03,24.80
2006,06,24,15,04,24.90
2006,06,24,15,05,24.90
2006,06,24,15,06,24.90
2006,06,24,15,07,24.90
2006,06,24,15,08,24.90
2006,06,24,15,09,24.80
2006,06,24,15,10,24.70
2006,06,24,15,11,24.60
2006,06,24,15,12,24.50
2006,06,24,15,13,24.40
2006,06,24,15,14,24.30
2006,06,24,15,15,24.20
2006,06,24,15,16,24.30
2006,06,24,15,17,24.30
2006,06,24,15,18,24.30
2006,06,24,15,19,24.30
2006,06,24,15,20,24.30
2006,06,24,15,21,24.40
2006,06,24,15,22,24.50
2006,06,24,15,23,24.50
2006,06,24,15,24,24.60
2006,06,24,15,25,24.60
2006,06,24,15,26,24.60
2006,06,24,15,27,24.50
2006,06,24,15,28,24.50
2006,06,24,15,29,24.50
2006,06,24,15,30,24.60
2006,06,24,15,31,24.60
2006,06,24,15,32,24.60
2006,06,24,15,33,24.70
2006,06,24,15,34,24.80
2006,06,24,15,35,24.80
2006,06,24,15,36,24.90
2006,06,24,15,37,24.90
2006,06,24,15,38,25.00
2006,06,24,15,39,25.10
2006,06,24,15,40,25.10
2006,06,24,15,41,25.10
2006,06,24,15,42,25.20
2006,06,24,15,43,25.20
2006,06,24,15,44,25.10
2006,06,24,15,45,25.00
2006,06,24,15,46,24.90
2006,06,24,15,47,24.90
2006,06,24,15,48,24.90
2006,06,24,15,49,24.90
2006,06,24,15,50,24.90
2006,06,24,15,51,24.90
2006,06,24,15,52,25.00
2006,06,24,15,53,25.10
2006,06,24,15,54,25.20
2006,06,24,15,55,25.20
2006,06,24,15,56,25.30
2006,06,24,15,57,25.40
2006,06,24,15,58,25.40
2006,06,24,15,59,25.40
2006,06,24,16,00,25.30
2006,06,24,16,01,25.20
2006,06,24,16,02,25.00
2006,06,24,16,03,25.00
2006,06,24,16,04,24.90
2006,06,24,16,05,24.90
2006,06,24,16,06,24.90
2006,06,24,16,07,24.90
2006,06,24,16,08,24.80
2006,06,24,16,09,24.90
2006,06,24,16,10,24.90
2006,06,24,16,11,24.90
2006,06,24,16,12,24.90
2006,06,24,16,13,24.90
2006,06,24,16,14,25.10
2006,06,24,16,15,25.20
2006,06,24,16,16,25.30
2006,06,24,16,17,25.40
2006,06,24,16,18,25.40
2006,06,24,16,19,25.60
2006,06,24,16,20,25.70
2006,06,24,16,21,25.70
2006,06,24,16,22,25.80
2006,06,24,16,23,25.80
2006,06,24,16,24,25.80
2006,06,24,16,25,25.80
2006,06,24,16,26,25.90
2006,06,24,16,27,25.90
2006,06,24,16,28,25.90
2006,06,24,16,29,25.90
2006,06,24,16,30,26.00
2006,06,24,16,31,26.00
2006,06,24,16,32,26.10
2006,06,24,16,33,26.20
2006,06,24,16,34,26.20
2006,06,24,16,35,26.30
2006,06,24,16,36,26.30
2006,06,24,16,37,26.40
2006,06,24,16,38,26.50
2006,06,24,16,39,26.60
2006,06,24,16,40,26.60
2006,06,24,16,41,26.60
2006,06,24,16,42,26.60
2006,06,24,16,43,26.60
2006,06,24,16,44,26.60
2006,06,24,16,45,26.60
2006,06,24,16,46,26.60
2006,06,24,16,47,26.60
2006,06,24,16,48,26.70
2006,06,24,16,49,26.70
2006,06,24,16,50,26.60
2006,06,24,16,51,26.60
2006,06,24,16,52,26.60
2006,06,24,16,53,26.40
2006,06,24,16,54,26.30
2006,06,24,16,55,26.10
2006,06,24,16,56,26.10
2006,06,24,16,57,26.00
2006,06,24,16,58,26.00
2006,06,24,16,59,26.00
2006,06,24,17,00,25.90
2006,06,24,17,01,25.90
2006,06,24,17,02,25.90
2006,06,24,17,03,25.90
2006,06,24,17,04,25.90
2006,06,24,17,05,25.90
2006,06,24,17,06,25.80
2006,06,24,17,07,25.80
2006,06,24,17,08,25.80
2006,06,24,17,09,25.80
2006,06,24,17,10,25.80
2006,06,24,17,11,25.80
2006,06,24,17,12,25.80
2006,06,24,17,13,25.80
2006,06,24,17,14,25.90
2006,06,24,17,15,25.90
2006,06,24,17,16,26.00
2006,06,24,17,17,26.00
2006,06,24,17,18,26.00
2006,06,24,17,19,26.00